Location: Franzen
(48.6167°N, 15.3833°E)
Time: 23:15:23
(UTC+00:00)

Transit 2A - Pass Details

Date: 12 August 2021
Orbit: 594 x 964 km, 66.7° (Epoch: 26 September)

Event Time Altitude Azimuth Distance (km) Brightness Sun altitude
Rises 09:21:56 0° 327° (NNW) 3,199 8.8 50.3°
Reaches altitude 10° 09:24:35 10° 340° (NNW) 2,336 8.3 50.6°
Maximum altitude 09:29:11 27° 38° (NE) 1,536 7.8 51.1°
Drops below altitude 10° 09:34:08 10° 95° (E) 2,538 9.2 51.6°
Sets 09:37:07 0° 107° (ESE) 3,529 9.9 51.8°
